TimePDT,TemperatureF,Dew PointF,Humidity,Sea Level PressureIn,VisibilityMPH,Wind Direction,Wind SpeedMPH,Gust SpeedMPH,PrecipitationIn,Events,Conditions,WindDirDegrees,DateUTC
12:15 AM,55.4,37.4,51,30.27,10.0,NW,4.6,-,N/A,,Clear,310,2013-08-18 07:15:00
12:35 AM,51.8,37.4,58,30.27,10.0,West,5.8,-,N/A,,Clear,280,2013-08-18 07:35:00
12:55 AM,55.4,37.4,51,30.27,10.0,Calm,Calm,-,N/A,,Clear,0,2013-08-18 07:55:00
1:15 AM,55.4,37.4,51,30.26,10.0,NNW,3.5,-,N/A,,Clear,330,2013-08-18 08:15:00
1:35 AM,53.6,37.4,54,30.26,10.0,Calm,Calm,-,N/A,,Clear,0,2013-08-18 08:35:00
1:55 AM,53.6,37.4,54,30.26,10.0,NW,3.5,-,N/A,,Clear,310,2013-08-18 08:55:00
2:15 AM,53.6,37.4,54,30.26,10.0,Calm,Calm,-,N/A,,Clear,0,2013-08-18 09:15:00
2:35 AM,51.8,37.4,58,30.26,10.0,Calm,Calm,-,N/A,,Clear,0,2013-08-18 09:35:00
2:55 AM,53.6,37.4,54,30.26,10.0,Calm,Calm,-,N/A,,Clear,0,2013-08-18 09:55:00
3:15 AM,51.8,35.6,54,30.26,10.0,NNW,3.5,-,N/A,,Clear,330,2013-08-18 10:15:00
3:35 AM,50.0,37.4,62,30.25,10.0,WNW,6.9,-,N/A,,Clear,290,2013-08-18 10:35:00
3:55 AM,50.0,37.4,62,30.25,10.0,NW,3.5,-,N/A,,Clear,310,2013-08-18 10:55:00
4:15 AM,48.2,35.6,62,30.25,10.0,NNW,3.5,-,N/A,,Clear,340,2013-08-18 11:15:00
4:35 AM,48.2,35.6,62,30.25,10.0,Calm,Calm,-,N/A,,Clear,0,2013-08-18 11:35:00
4:55 AM,48.2,35.6,62,30.25,10.0,Calm,Calm,-,N/A,,Clear,0,2013-08-18 11:55:00
5:15 AM,48.2,35.6,62,30.25,10.0,Calm,Calm,-,N/A,,Clear,0,2013-08-18 12:15:00
5:35 AM,46.4,35.6,66,30.26,10.0,Calm,Calm,-,N/A,,Clear,0,2013-08-18 12:35:00
5:55 AM,48.2,35.6,62,30.27,10.0,Calm,Calm,-,N/A,,Clear,0,2013-08-18 12:55:00
6:15 AM,46.4,35.6,66,30.27,10.0,Calm,Calm,-,N/A,,Clear,0,2013-08-18 13:15:00
6:35 AM,44.6,33.8,66,30.28,10.0,Calm,Calm,-,N/A,,Clear,0,2013-08-18 13:35:00
6:55 AM,42.8,33.8,70,30.28,10.0,Calm,Calm,-,N/A,,Clear,0,2013-08-18 13:55:00
7:15 AM,50.0,37.4,62,30.29,10.0,Calm,Calm,-,N/A,,Clear,0,2013-08-18 14:15:00
7:35 AM,53.6,37.4,54,30.29,10.0,Calm,Calm,-,N/A,,Clear,0,2013-08-18 14:35:00
7:55 AM,57.2,37.4,48,30.29,10.0,Calm,Calm,-,N/A,,Clear,0,2013-08-18 14:55:00
8:15 AM,60.8,39.2,45,30.29,10.0,Calm,Calm,-,N/A,,Clear,0,2013-08-18 15:15:00
8:35 AM,64.4,39.2,40,30.29,10.0,Calm,Calm,-,N/A,,Clear,0,2013-08-18 15:35:00
8:55 AM,66.2,39.2,37,30.30,10.0,SE,4.6,-,N/A,,Clear,140,2013-08-18 15:55:00
9:15 AM,68.0,41.0,37,30.30,10.0,SE,6.9,-,N/A,,Clear,130,2013-08-18 16:15:00
9:35 AM,71.6,39.2,31,30.30,10.0,SSE,6.9,-,N/A,,Clear,150,2013-08-18 16:35:00
9:55 AM,75.2,32.0,21,30.30,10.0,ESE,8.1,-,N/A,,Clear,120,2013-08-18 16:55:00
10:15 AM,77.0,32.0,19,30.30,10.0,SE,5.8,-,N/A,,Clear,140,2013-08-18 17:15:00
10:35 AM,75.2,30.2,19,30.30,10.0,SE,9.2,-,N/A,,Clear,130,2013-08-18 17:35:00
10:55 AM,78.8,28.4,16,30.31,10.0,ESE,6.9,-,N/A,,Clear,110,2013-08-18 17:55:00
11:15 AM,80.6,24.8,13,30.29,10.0,East,21.9,27.6,N/A,,Clear,100,2013-08-18 18:15:00
11:35 AM,82.4,26.6,13,30.30,10.0,East,20.7,24.2,N/A,,Clear,100,2013-08-18 18:35:00
11:55 AM,77.0,26.6,16,30.30,10.0,ESE,16.1,25.3,N/A,,Clear,120,2013-08-18 18:55:00
12:15 PM,80.6,28.4,15,30.29,10.0,ESE,20.7,26.5,N/A,,Clear,110,2013-08-18 19:15:00
12:35 PM,80.6,28.4,15,30.29,10.0,ESE,15.0,25.3,N/A,,Clear,110,2013-08-18 19:35:00
12:55 PM,82.4,28.4,14,30.29,10.0,ESE,15.0,24.2,N/A,,Clear,120,2013-08-18 19:55:00
1:15 PM,80.6,28.4,15,30.29,10.0,ESE,15.0,27.6,N/A,,Clear,110,2013-08-18 20:15:00
1:35 PM,82.4,28.4,14,30.29,10.0,East,10.4,25.3,N/A,,Scattered Clouds,100,2013-08-18 20:35:00
1:55 PM,84.2,28.4,13,30.28,10.0,ESE,13.8,24.2,N/A,,Overcast,120,2013-08-18 20:55:00
2:15 PM,80.6,28.4,15,30.28,10.0,ESE,15.0,24.2,N/A,,Mostly Cloudy,110,2013-08-18 21:15:00
2:35 PM,78.8,30.2,17,30.28,10.0,ESE,10.4,-,N/A,,Mostly Cloudy,110,2013-08-18 21:35:00
2:55 PM,77.0,30.2,18,30.29,10.0,Calm,Calm,-,N/A,,Scattered Clouds,0,2013-08-18 21:55:00
3:15 PM,77.0,30.2,18,30.29,10.0,West,12.7,-,N/A,,Clear,280,2013-08-18 22:15:00
3:35 PM,77.0,32.0,19,30.28,10.0,WSW,9.2,24.2,N/A,,Clear,240,2013-08-18 22:35:00
3:55 PM,77.0,32.0,19,30.27,10.0,WSW,6.9,16.1,N/A,,Clear,250,2013-08-18 22:55:00
4:15 PM,77.0,32.0,19,30.27,10.0,WNW,19.6,24.2,N/A,,Clear,300,2013-08-18 23:15:00
4:35 PM,77.0,32.0,19,30.26,10.0,WNW,17.3,20.7,N/A,,Clear,300,2013-08-18 23:35:00
4:55 PM,77.0,30.2,18,30.26,10.0,NW,9.2,18.4,N/A,,Clear,310,2013-08-18 23:55:00
5:15 PM,77.0,30.2,18,30.27,10.0,West,5.8,-,N/A,,Clear,270,2013-08-19 00:15:00
5:35 PM,77.0,30.2,18,30.26,10.0,SW,10.4,20.7,N/A,,Clear,220,2013-08-19 00:35:00
5:55 PM,75.2,30.2,19,30.26,10.0,SSW,19.6,27.6,N/A,,Clear,210,2013-08-19 00:55:00
6:15 PM,75.2,30.2,19,30.26,10.0,SSW,12.7,25.3,N/A,,Clear,200,2013-08-19 01:15:00
6:35 PM,75.2,30.2,19,30.26,10.0,Calm,Calm,-,N/A,,Clear,0,2013-08-19 01:35:00
6:55 PM,73.4,32.0,22,30.27,10.0,Calm,Calm,-,N/A,,Clear,0,2013-08-19 01:55:00
7:15 PM,73.4,32.0,22,30.27,10.0,Calm,Calm,-,N/A,,Clear,0,2013-08-19 02:15:00
7:55 PM,71.6,33.8,25,30.30,10.0,ESE,8.1,-,N/A,,Scattered Clouds,110,2013-08-19 02:55:00
8:15 PM,69.8,33.8,27,30.31,10.0,East,4.6,-,N/A,,Overcast,100,2013-08-19 03:15:00
8:35 PM,68.0,39.2,35,30.30,10.0,SE,15.0,27.6,N/A,,Mostly Cloudy,130,2013-08-19 03:35:00
8:55 PM,69.8,35.6,28,30.31,10.0,South,19.6,24.2,N/A,,Scattered Clouds,170,2013-08-19 03:55:00
9:35 PM,62.6,44.6,52,30.35,10.0,East,19.6,27.6,N/A,,Mostly Cloudy,100,2013-08-19 04:35:00
9:55 PM,60.8,46.4,59,30.37,10.0,ESE,20.7,31.1,N/A,,Overcast,110,2013-08-19 04:55:00
10:15 PM,59.0,46.4,63,30.40,10.0,East,13.8,18.4,N/A,,Scattered Clouds,100,2013-08-19 05:15:00
10:35 PM,59.0,44.6,59,30.42,10.0,ESE,8.1,-,N/A,,Clear,110,2013-08-19 05:35:00
10:55 PM,59.0,46.4,63,30.41,10.0,East,10.4,-,N/A,,Mostly Cloudy,100,2013-08-19 05:55:00
11:15 PM,59.0,44.6,59,30.42,10.0,ESE,11.5,-,N/A,,Scattered Clouds,120,2013-08-19 06:15:00
11:35 PM,59.0,42.8,55,30.41,10.0,ESE,9.2,-,N/A,,Scattered Clouds,110,2013-08-19 06:35:00
11:55 PM,60.8,42.8,52,30.40,10.0,ESE,6.9,-,N/A,,Mostly Cloudy,110,2013-08-19 06:55:00